Other Surface Observations
Issued by NWS

Home | Current Version | Previous Version | Text Only | Print | Product List | Glossary On
Versions: 1 2 3 4 5 6 7 8 9 10 11 12 13 14 15 16 17 18 19 20 21 22 23 24 25 26 27 28 29 30 31 32 33 34 35 36 37 38 39 40 41 42 43 44 45 46 47 48 49 50
000
SXUS52 KTAE 070018
OSOTAE
OSOTAE
North Florida/South Alabama/Southwest Georgia Weather Roundup
National Weather Service Tallahassee Florida
800 PM EDT WED MAY 06 2015

Note: "fair" indicates few or no clouds below 12,000 feet with no
significant weather and/or obstructions to visibility.

!FLZ017-115-028-034-025-070100
...North Florida...

CITY           SKY/WX    TMP DP  RH WIND       PRES   REMARKS
TALLAHASSEE    PTCLDY    84  58  40 NE8       30.03S
APALACHICOLA   PTCLDY    77  66  68 W5        30.04S
PERRY          CLEAR     78  65  63 E3        30.04S
CROSS CITY       N/A     77  62  59 VRB6      30.04R
JACKSONVILLE   MOCLDY    72  64  76 NE10      30.07R
$$

!FLZ112-006-005-002-011-070100
...Florida Panhandle...

CITY           SKY/WX    TMP DP  RH WIND       PRES   REMARKS
MARIANNA       CLEAR     80  58  46 NE7       30.04R
BONIFAY        NOT AVBL
PANAMA CITY NW FAIR      75  65  70 SW6       30.04S
TYNDALL AFB    PTCLDY    74  67  76 SW8       30.05S
TYND DRONE APT FAIR      74  68  81 SW5       30.05S
DE FUNIAK SPR  FAIR      80  56  43 NE3       30.05S
EGLIN AFB      PTCLDY    77  60  55 SW3       30.04F
DESTIN         CLEAR     77  65  66 SW7       30.05S
HURLBURT       PTCLDY    76  62  62 SW3       30.04S
CRESTVIEW      MOCLDY    80  61  52 CALM      30.06S
PENSACOLA      CLEAR     76  60  57 S9        30.05S
$$

!ALZ063-066-070100
...South Alabama...

CITY           SKY/WX    TMP DP  RH WIND       PRES   REMARKS
DOTHAN         CLEAR     79  60  52 NE5       30.09S
OZARK CAIRNS   CLEAR     78  59  52 N6        30.05S
FT RUCKER HELI CLEAR     80  58  46 CALM      30.05R
RUCKER HELI 3  FAIR      79  58  48 E3        30.07S
RUCKER HELI 2  FAIR      80  56  43 N5        30.05S
FLORALA APT    CLEAR     77  60  55 CALM      30.07S
ANDALUSIA      CLEAR     82  57  42 E5        30.05S
TROY           CLEAR     79  58  48 NE3       30.08S
EUFALA         FAIR      76  61  59 CALM      30.06S
MOBILE         CLEAR     77  60  55 S7        30.06R
$$

!GAZ120>161-070100
...Southwest and South Central Georgia...

CITY           SKY/WX    TMP DP  RH WIND       PRES   REMARKS
THOMASVILLE    FAIR      77  52  41 NE6       30.06S
BAINBRIDGE     CLEAR     82  59  44 NE7       30.05S
MOODY AFB      CLEAR     76  61  58 E8        30.05R
VALDOSTA       CLEAR     76  63  64 E7        30.06R
MOULTRIE       CLEAR     79  46  31 NE3       30.07R
BLAKELY        CLEAR     79  63  57 CALM      30.07R
ALBANY         CLEAR     80  50  34 NE7       30.08S
TIFTON         FAIR      77  46  33 CALM      30.07R
FITZGERALD     FAIR      77  52  42 N3        30.09S
CORDELE        FAIR      79  48  33 CALM      30.09R
AMERICUS       FAIR      77  54  44 E3        30.10R
HOMERVILLE     FAIR      77  64  65 CALM      30.08R
$$

!GMZ750-755-770-775-070100
...Coastal and Buoy Obs...

STATION/POSITION TIME  TEMP    WIND        PRES    VSBY  WAVE
                       AIR SEA DIR/SP/G                  HT/PER
                 (UTC) (F)     (DEG/KT/KT) (MB)    (MI)  (FT/S)
KEATON BEACH     0000   78      80/ 11/ 12 1017.2R
CEDAR KEY        0000   73     330/  3/  4 1017.4R
C TOWER          0000   73     260/  7/  8 1017.1S
APALACHICOLA BUO 2350   75 76  330/  4/  4 1017.0F         2/ 4
PANAMA CITY BUOY 2350   74 77  120/  4/  4 1017.8F         3/ 6
MOBILE BUOY      2350   75 76  120/ 12/ 12 1017.6F         4/ 6
ORANGE BCH AL BU 2350   74 76  170/ 10/ 10 1016.8F         3/ 6
$$



USA.gov is the U.S. government's official web portal to all federal, state and local government web resources and services.